Location: ???????????
(54.5822°N, 39.1075°E)
Time: 08:51:09
(UTC+00:00)

Envisat - Visible Passes

Search period start: 21 May 2026 00:00
Search period end: 31 May 2026 00:00
Orbit: 761 x 762 km, 98.4° (Epoch: 20 May)

Date Brightness Start Highest point End Pass type
(mag) Time Alt. Az. Time Alt. Az. Time Alt. Az.
21 May 3.4 00:03:16 10° NNE 00:08:21 65° ESE 00:13:23 10° S visible
21 May 4.4 23:25:41 10° NNE 23:30:19 34° E 23:34:54 10° SSE visible
22 May 5.2 22:48:35 10° NE 22:52:04 18° E 22:55:31 10° SE visible
23 May 3.7 23:48:48 10° NNE 23:53:46 51° E 23:58:41 10° S visible
24 May 4.7 23:11:22 10° NE 23:15:40 27° E 23:19:55 10° SSE visible
25 May 5.4 22:34:40 10° NE 22:37:20 14° E 22:39:59 10° ESE visible
26 May 3.2 00:12:03 10° NNE 00:17:09 76° ESE 00:22:13 10° S visible
26 May 4.1 23:34:23 10° NNE 23:39:09 39° E 23:43:54 10° SSE visible
27 May 5.0 22:57:08 10° NE 23:00:58 21° E 23:04:47 10° SE visible
28 May 5.6 22:21:23 10° ENE 22:22:33 11° E 22:23:43 10° E visible
28 May 3.5 23:57:33 10° NNE 00:02:35 59° ESE 00:07:35 10° S visible
29 May 4.5 23:20:01 10° NNE 23:24:31 31° E 23:29:00 10° SSE visible
30 May 5.3 22:43:02 10° NE 22:46:14 17° E 22:49:26 10° SE visible
